TimeCST,TemperatureF,Dew PointF,Humidity,Sea Level PressureIn,VisibilityMPH,Wind Direction,Wind SpeedMPH,Gust SpeedMPH,PrecipitationIn,Events,Conditions,WindDirDegrees,DateUTC
12:53 AM,33.1,24.1,70,30.33,10.0,Calm,Calm,-,N/A,,Clear,0,2013-03-07 06:53:00
1:53 AM,33.1,25.0,72,30.32,10.0,ENE,3.5,-,N/A,,Clear,60,2013-03-07 07:53:00
2:53 AM,33.1,25.0,72,30.30,10.0,ENE,6.9,-,N/A,,Clear,60,2013-03-07 08:53:00
3:53 AM,33.1,25.0,72,30.32,10.0,NE,4.6,-,N/A,,Clear,50,2013-03-07 09:53:00
4:53 AM,32.0,24.1,73,30.35,10.0,ENE,3.5,-,N/A,,Clear,60,2013-03-07 10:53:00
5:53 AM,32.0,25.0,75,30.36,10.0,NNE,4.6,-,N/A,,Clear,30,2013-03-07 11:53:00
6:53 AM,32.0,25.0,75,30.37,10.0,NNE,5.8,-,N/A,,Clear,30,2013-03-07 12:53:00
7:53 AM,34.0,25.0,70,30.38,9.0,ENE,8.1,-,N/A,,Partly Cloudy,70,2013-03-07 13:53:00
8:23 AM,35.6,26.6,70,30.39,10.0,NNE,5.8,-,N/A,,Mostly Cloudy,30,2013-03-07 14:23:00
8:53 AM,35.1,26.1,70,30.39,10.0,ENE,8.1,-,N/A,,Mostly Cloudy,60,2013-03-07 14:53:00
9:01 AM,33.8,26.6,75,30.39,10.0,East,5.8,-,N/A,,Scattered Clouds,80,2013-03-07 15:01:00
9:30 AM,35.6,26.6,70,30.38,10.0,NNE,4.6,-,N/A,,Mostly Cloudy,20,2013-03-07 15:30:00
9:53 AM,37.0,27.0,67,30.39,10.0,NE,5.8,-,N/A,,Scattered Clouds,50,2013-03-07 15:53:00
10:53 AM,37.9,27.0,65,30.38,10.0,Calm,Calm,-,N/A,,Clear,0,2013-03-07 16:53:00
11:53 AM,43.0,28.0,56,30.38,10.0,NW,6.9,-,N/A,,Clear,320,2013-03-07 17:53:00
12:53 PM,46.9,28.9,50,30.34,10.0,North,5.8,-,N/A,,Clear,350,2013-03-07 18:53:00
1:53 PM,50.0,28.9,44,30.32,10.0,North,3.5,-,N/A,,Clear,10,2013-03-07 19:53:00
2:53 PM,52.0,28.0,40,30.31,10.0,WNW,3.5,-,N/A,,Clear,300,2013-03-07 20:53:00
3:53 PM,52.0,28.0,40,30.30,10.0,Calm,Calm,-,N/A,,Clear,0,2013-03-07 21:53:00
4:53 PM,52.0,28.9,41,30.30,10.0,East,5.8,-,N/A,,Clear,80,2013-03-07 22:53:00
5:53 PM,48.0,30.0,50,30.31,10.0,ENE,6.9,-,N/A,,Clear,70,2013-03-07 23:53:00
6:53 PM,44.1,30.0,58,30.32,10.0,ENE,4.6,-,N/A,,Clear,70,2013-03-08 00:53:00
7:53 PM,43.0,28.9,58,30.32,10.0,ENE,4.6,-,N/A,,Clear,60,2013-03-08 01:53:00
8:53 PM,41.0,28.9,62,30.32,10.0,ENE,3.5,-,N/A,,Clear,70,2013-03-08 02:53:00
9:53 PM,39.9,28.9,65,30.33,10.0,ENE,4.6,-,N/A,,Clear,60,2013-03-08 03:53:00
10:53 PM,37.9,28.0,68,30.33,10.0,ENE,5.8,-,N/A,,Clear,60,2013-03-08 04:53:00
11:53 PM,37.0,28.0,70,30.33,10.0,ENE,4.6,-,N/A,,Clear,60,2013-03-08 05:53:00